QPF
0.08 0.12 0.21 0.33 0.18 0.13 0.12 0.11 0.10 0.09 0.10 0.11 0.13 0.10 0.10 0.10 0.12 0.12 0.10 0.08 0.06 0.05 0.06 0.06 0.06 0.07 0.08 0.07 0.05 0.05 0.04 0.03 0.03 0.05 0.16 0.13 0.06 0.06 0.06 0.04 0.03 0.01 0.03
0.09 0.10 0.15 0.22 0.19 0.14 0.11 0.10 0.09 0.08 0.10 0.10 0.11 0.10 0.08 0.07 0.08 0.08 0.07 0.07 0.08 0.07 0.05 0.05 0.06 0.07 0.08 0.05 0.05 0.04 0.03 0.03 0.03 0.05 0.12 0.11 0.05 0.05 0.06 0.04 0.03 0.02 0.04
0.08 0.08 0.10 0.12 0.13 0.11 0.08 0.07 0.06 0.06 0.07 0.07 0.08 0.09 0.09 0.08 0.09 0.08 0.08 0.08 0.08 0.06 0.06 0.07 0.07 0.08 0.06 0.05 0.06 0.04 0.03 0.04 0.04 0.04 0.06 0.06 0.04 0.05 0.07 0.06 0.06 0.04 0.05
0.07 0.07 0.08 0.09 0.11 0.11 0.08 0.07 0.06 0.05 0.06 0.06 0.07 0.07 0.08 0.09 0.10 0.09 0.08 0.07 0.08 0.08 0.09 0.09 0.09 0.08 0.06 0.04 0.05 0.04 0.03 0.03 0.05 0.04 0.03 0.03 0.02 0.04 0.08 0.08 0.07 0.05 0.08
0.04 0.05 0.08 0.10 0.12 0.11 0.08 0.07 0.06 0.06 0.06 0.07 0.07 0.08 0.07 0.10 0.13 0.11 0.10 0.10 0.11 0.11 0.11 0.10 0.09 0.07 0.06 0.04 0.04 0.04 0.05 0.05 0.06 0.04 0.05 0.04 0.02 0.04 0.05 0.08 0.08 0.08 0.11
0.03 0.05 0.07 0.10 0.12 0.09 0.07 0.06 0.07 0.08 0.09 0.10 0.08 0.08 0.08 0.10 0.14 0.13 0.11 0.11 0.12 0.12 0.11 0.11 0.08 0.07 0.07 0.05 0.04 0.04 0.05 0.07 0.06 0.03 0.03 0.03 0.04 0.04 0.05 0.08 0.10 0.12 0.10
0.03 0.04 0.07 0.10 0.14 0.12 0.11 0.09 0.09 0.09 0.08 0.07 0.08 0.09 0.10 0.10 0.11 0.12 0.12 0.09 0.08 0.07 0.08 0.11 0.08 0.07 0.07 0.06 0.05 0.04 0.04 0.05 0.03 0.02 0.02 0.03 0.04 0.06 0.06 0.08 0.10 0.14 0.11
0.03 0.03 0.05 0.10 0.17 0.18 0.17 0.13 0.11 0.09 0.07 0.06 0.07 0.08 0.10 0.10 0.13 0.14 0.13 0.10 0.08 0.06 0.06 0.12 0.18 0.14 0.15 0.09 0.06 0.05 0.05 0.05 0.02 0.01 0.01 0.02 0.03 0.05 0.08 0.11 0.14 0.18 0.16
0.03 0.03 0.03 0.06 0.12 0.15 0.14 0.12 0.11 0.12 0.09 0.07 0.06 0.06 0.10 0.12 0.13 0.13 0.13 0.12 0.08 0.06 0.07 0.13 0.28 0.35 0.30 0.17 0.09 0.06 0.05 0.05 0.02 0.01 0.01 0.03 0.05 0.07 0.11 0.13 0.15 0.21 0.19
0.04 0.02 0.02 0.04 0.06 0.07 0.09 0.11 0.12 0.14 0.09 0.06 0.05 0.05 0.09 0.10 0.10 0.10 0.09 0.10 0.07 0.06 0.07 0.10 0.17 0.33 0.32 0.23 0.15 0.10 0.07 0.05 0.02 0.02 0.02 0.03 0.05 0.08 0.12 0.13 0.15 0.20 0.17
0.02 0.02 0.02 0.02 0.04 0.06 0.07 0.09 0.12 0.12 0.08 0.07 0.07 0.08 0.10 0.08 0.05 0.05 0.06 0.08 0.05 0.05 0.08 0.08 0.10 0.18 0.21 0.16 0.14 0.12 0.08 0.04 0.02 0.02 0.04 0.04 0.06 0.09 0.13 0.12 0.14 0.14 0.13
0.01 0.01 0.02 0.03 0.03 0.04 0.05 0.06 0.08 0.09 0.07 0.05 0.05 0.05 0.06 0.04 0.03 0.04 0.07 0.08 0.08 0.07 0.09 0.09 0.10 0.09 0.08 0.06 0.07 0.07 0.05 0.06 0.05 0.04 0.05 0.06 0.09 0.15 0.16 0.14 0.16 0.12 0.10
0.01 0.01 0.02 0.03 0.04 0.04 0.05 0.04 0.04 0.05 0.05 0.05 0.05 0.05 0.04 0.03 0.04 0.05 0.05 0.05 0.05 0.05 0.04 0.04 0.04 0.03 0.02 0.03 0.03 0.02 0.02 0.05 0.07 0.06 0.07 0.10 0.14 0.19 0.18 0.15 0.15 0.13 0.11
0.02 0.01 0.03 0.04 0.05 0.04 0.05 0.04 0.04 0.04 0.04 0.05 0.05 0.05 0.04 0.03 0.03 0.02 0.03 0.02 0.01 0.01 0.01 0.01 0.01 0.02 0.02 0.02 0.02 0.03 0.03 0.03 0.04 0.07 0.11 0.13 0.17 0.17 0.16 0.15 0.18 0.19 0.19
0.03 0.05 0.05 0.05 0.05 0.03 0.03 0.03 0.03 0.03 0.03 0.04 0.05 0.05 0.05 0.04 0.02 0.02 0.02 0.03 0.03 0.03 0.03 0.03 0.03 0.02 0.03 0.02 0.02 0.04 0.06 0.07 0.07 0.08 0.13 0.16 0.18 0.16 0.17 0.20 0.22 0.23 0.20
0.06 0.07 0.06 0.04 0.03 0.03 0.02 0.02 0.03 0.02 0.02 0.03 0.04 0.03 0.04 0.04 0.05 0.04 0.03 0.05 0.05 0.04 0.04 0.05 0.06 0.03 0.03 0.03 0.04 0.04 0.05 0.06 0.07 0.09 0.10 0.12 0.15 0.16 0.18 0.21 0.21 0.22 0.23
0.07 0.09 0.05 0.04 0.03 0.03 0.03 0.03 0.02 0.02 0.02 0.04 0.05 0.03 0.02 0.03 0.04 0.05 0.06 0.07 0.06 0.06 0.06 0.04 0.04 0.03 0.03 0.03 0.05 0.05 0.04 0.04 0.05 0.08 0.08 0.07 0.08 0.13 0.16 0.22 0.22 0.22 0.23
0.06 0.06 0.04 0.03 0.03 0.03 0.03 0.04 0.03 0.02 0.03 0.03 0.03 0.03 0.03 0.03 0.02 0.03 0.04 0.05 0.04 0.04 0.04 0.04 0.04 0.06 0.05 0.04 0.04 0.05 0.04 0.03 0.04 0.05 0.06 0.05 0.05 0.08 0.12 0.19 0.21 0.20 0.22
0.03 0.03 0.04 0.04 0.04 0.03 0.03 0.04 0.04 0.03 0.03 0.02 0.03 0.04 0.03 0.03 0.02 0.03 0.03 0.03 0.02 0.02 0.02 0.03 0.03 0.04 0.06 0.05 0.03 0.03 0.03 0.03 0.04 0.03 0.03 0.04 0.06 0.06 0.06 0.08 0.12 0.13 0.16
0.02 0.03 0.04 0.04 0.03 0.03 0.03 0.03 0.03 0.04 0.03 0.04 0.04 0.03 0.02 0.02 0.02 0.02 0.02 0.02 0.01 0.01 0.02 0.01 0.03 0.04 0.06 0.06 0.05 0.04 0.04 0.03 0.04 0.03 0.03 0.05 0.06 0.06 0.07 0.07 0.06 0.07 0.12
0.02 0.03 0.04 0.04 0.03 0.02 0.02 0.02 0.03 0.03 0.03 0.03 0.03 0.03 0.02 0.02 0.01 0.01 0.01 0.02 0.02 0.02 0.01 0.01 0.02 0.04 0.04 0.05 0.05 0.04 0.03 0.03 0.03 0.03 0.03 0.04 0.05 0.05 0.06 0.06 0.05 0.05 0.06
0.02 0.02 0.03 0.03 0.03 0.02 0.02 0.02 0.03 0.02 0.02 0.02 0.03 0.03 0.02 0.02 0.02 0.02 0.01 0.01 0.01 0.01 0.02 0.02 0.03 0.02 0.02 0.03 0.03 0.04 0.03 0.03 0.03 0.03 0.04 0.04 0.04 0.04 0.04 0.03 0.03 0.04 0.04
0.01 0.02 0.02 0.02 0.02 0.02 0.02 0.02 0.02 0.02 0.02 0.02 0.02 0.02 0.02 0.01 0.02 0.02 0.01 0.01 0.01 0.02 0.02 0.03 0.03 0.01 0.01 0.02 0.02 0.02 0.02 0.03 0.03 0.03 0.04 0.04 0.03 0.02 0.02 0.02 0.02 0.03 0.04
0.01 0.02 0.03 0.02 0.02 0.02 0.02 0.02 0.02 0.02 0.01 0.01 0.01 0.01 0.01 0.02 0.02 0.01 0.01 0.01 0.02 0.03 0.02 0.02 0.02 0.01 0.01 0.01 0.01 0.02 0.04 0.04 0.03 0.02 0.02 0.04 0.03 0.01 0.01 0.01 0.02 0.02 0.02
0.01 0.02 0.04 0.03 0.03 0.02 0.02 0.02 0.01 0.01 0.01 0.01 0.01 0.00 0.01 0.01 0.02 0.01 0.01 0.01 0.02 0.02 0.02 0.01 0.01 0.01 0.01 0.02 0.03 0.04 0.05 0.04 0.02 0.02 0.02 0.03 0.02 0.01 0.01 0.01 0.01 0.01 0.02
0.01 0.02 0.05 0.05 0.03 0.03 0.02 0.01 0.01 0.01 0.00 0.01 0.01 0.00 0.00 0.00 0.01 0.00 0.01 0.01 0.01 0.01 0.01 0.01 0.02 0.02 0.01 0.01 0.03 0.06 0.07 0.05 0.03 0.02 0.02 0.02 0.02 0.02 0.02 0.02 0.02 0.02 0.02
MSLP
1012.31 1011.66 1011.12 1010.73 1010.51 1010.42 1010.42 1010.48 1010.54 1010.57 1010.57 1010.53 1010.45 1010.34 1010.22 1010.08 1009.93 1009.78 1009.63 1009.50 1009.39 1009.32 1009.31 1009.34 1009.43 1009.55 1009.71 1009.88 1010.06 1010.25 1010.44 1010.64 1010.85 1011.10 1011.36 1011.66 1011.98 1012.32 1012.66 1012.99 1013.29 1013.56 1013.79
1012.05 1011.47 1011.01 1010.71 1010.58 1010.58 1010.66 1010.77 1010.86 1010.90 1010.89 1010.84 1010.75 1010.66 1010.57 1010.49 1010.42 1010.36 1010.30 1010.25 1010.20 1010.16 1010.15 1010.16 1010.21 1010.29 1010.40 1010.53 1010.67 1010.83 1011.00 1011.18 1011.39 1011.61 1011.87 1012.14 1012.44 1012.74 1013.04 1013.33 1013.60 1013.84 1014.05
1011.80 1011.32 1010.97 1010.79 1010.75 1010.84 1010.99 1011.14 1011.26 1011.30 1011.27 1011.19 1011.09 1011.00 1010.93 1010.90 1010.89 1010.91 1010.92 1010.92 1010.92 1010.91 1010.90 1010.89 1010.91 1010.96 1011.03 1011.13 1011.24 1011.38 1011.54 1011.71 1011.90 1012.12 1012.35 1012.60 1012.86 1013.12 1013.38 1013.63 1013.86 1014.08 1014.29
1011.64 1011.29 1011.07 1010.99 1011.06 1011.22 1011.42 1011.60 1011.71 1011.74 1011.69 1011.58 1011.46 1011.35 1011.30 1011.29 1011.32 1011.38 1011.44 1011.49 1011.51 1011.52 1011.51 1011.50 1011.51 1011.53 1011.59 1011.67 1011.78 1011.90 1012.05 1012.22 1012.40 1012.59 1012.80 1013.02 1013.23 1013.45 1013.67 1013.88 1014.09 1014.29 1014.51
1011.67 1011.43 1011.32 1011.34 1011.48 1011.69 1011.91 1012.09 1012.19 1012.18 1012.10 1011.96 1011.81 1011.70 1011.65 1011.65 1011.70 1011.78 1011.86 1011.93 1011.96 1011.98 1011.98 1011.98 1011.99 1012.02 1012.08 1012.17 1012.27 1012.40 1012.55 1012.71 1012.87 1013.04 1013.22 1013.40 1013.57 1013.74 1013.91 1014.09 1014.28 1014.49 1014.71
1011.88 1011.74 1011.70 1011.78 1011.95 1012.18 1012.39 1012.55 1012.61 1012.57 1012.45 1012.29 1012.14 1012.02 1011.97 1011.98 1012.03 1012.11 1012.19 1012.26 1012.30 1012.32 1012.33 1012.35 1012.38 1012.44 1012.52 1012.62 1012.75 1012.88 1013.02 1013.17 1013.32 1013.47 1013.61 1013.75 1013.89 1014.02 1014.16 1014.30 1014.48 1014.69 1014.93
1012.25 1012.16 1012.15 1012.25 1012.42 1012.62 1012.80 1012.91 1012.92 1012.85 1012.72 1012.55 1012.40 1012.30 1012.26 1012.27 1012.33 1012.40 1012.47 1012.52 1012.55 1012.58 1012.60 1012.65 1012.71 1012.80 1012.92 1013.05 1013.19 1013.33 1013.47 1013.61 1013.74 1013.87 1013.99 1014.11 1014.21 1014.32 1014.43 1014.55 1014.71 1014.91 1015.16
1012.69 1012.60 1012.60 1012.67 1012.81 1012.96 1013.07 1013.13 1013.10 1013.01 1012.87 1012.72 1012.60 1012.53 1012.51 1012.54 1012.60 1012.66 1012.71 1012.74 1012.76 1012.79 1012.83 1012.90 1013.00 1013.14 1013.29 1013.45 1013.60 1013.75 1013.88 1014.01 1014.13 1014.24 1014.35 1014.46 1014.56 1014.65 1014.74 1014.86 1015.00 1015.18 1015.42
1013.08 1012.99 1012.96 1013.00 1013.08 1013.16 1013.21 1013.21 1013.15 1013.04 1012.92 1012.81 1012.74 1012.71 1012.73 1012.78 1012.84 1012.89 1012.92 1012.93 1012.94 1012.97 1013.02 1013.12 1013.26 1013.43 1013.61 1013.78 1013.94 1014.09 1014.21 1014.32 1014.44 1014.55 1014.68 1014.79 1014.91 1015.01 1015.11 1015.21 1015.33 1015.49 1015.70
1013.37 1013.26 1013.21 1013.21 1013.24 1013.27 1013.26 1013.21 1013.12 1013.02 1012.92 1012.85 1012.83 1012.86 1012.93 1013.00 1013.07 1013.10 1013.11 1013.10 1013.09 1013.12 1013.18 1013.30 1013.47 1013.66 1013.86 1014.04 1014.20 1014.32 1014.44 1014.54 1014.65 1014.79 1014.93 1015.09 1015.24 1015.37 1015.49 1015.59 1015.70 1015.82 1015.99
1013.53 1013.42 1013.36 1013.35 1013.34 1013.33 1013.28 1013.19 1013.09 1012.98 1012.91 1012.89 1012.92 1013.00 1013.10 1013.19 1013.26 1013.28 1013.27 1013.23 1013.21 1013.23 1013.30 1013.43 1013.60 1013.81 1014.01 1014.19 1014.33 1014.44 1014.54 1014.63 1014.76 1014.91 1015.10 1015.30 1015.51 1015.69 1015.84 1015.96 1016.05 1016.14 1016.26
1013.57 1013.49 1013.46 1013.45 1013.44 1013.40 1013.32 1013.21 1013.09 1013.00 1012.94 1012.95 1013.02 1013.14 1013.26 1013.36 1013.42 1013.42 1013.39 1013.33 1013.29 1013.29 1013.36 1013.49 1013.67 1013.87 1014.07 1014.23 1014.35 1014.44 1014.52 1014.61 1014.74 1014.92 1015.15 1015.42 1015.68 1015.92 1016.11 1016.25 1016.35 1016.42 1016.49
1013.54 1013.52 1013.54 1013.56 1013.56 1013.52 1013.43 1013.31 1013.19 1013.09 1013.04 1013.07 1013.15 1013.28 1013.40 1013.50 1013.54 1013.53 1013.47 1013.39 1013.33 1013.32 1013.38 1013.50 1013.68 1013.87 1014.05 1014.20 1014.30 1014.36 1014.42 1014.51 1014.64 1014.85 1015.12 1015.43 1015.75 1016.05 1016.28 1016.45 1016.55 1016.61 1016.65
1013.50 1013.56 1013.63 1013.70 1013.73 1013.70 1013.61 1013.49 1013.36 1013.25 1013.20 1013.22 1013.31 1013.42 1013.53 1013.61 1013.64 1013.60 1013.52 1013.42 1013.35 1013.33 1013.38 1013.50 1013.67 1013.85 1014.02 1014.14 1014.23 1014.27 1014.32 1014.39 1014.53 1014.74 1015.03 1015.37 1015.73 1016.07 1016.34 1016.54 1016.65 1016.70 1016.73
1013.49 1013.61 1013.75 1013.86 1013.92 1013.91 1013.83 1013.71 1013.57 1013.46 1013.40 1013.41 1013.47 1013.56 1013.65 1013.71 1013.71 1013.66 1013.57 1013.47 1013.39 1013.37 1013.42 1013.54 1013.69 1013.87 1014.03 1014.14 1014.21 1014.25 1014.28 1014.34 1014.47 1014.67 1014.96 1015.30 1015.67 1016.02 1016.31 1016.52 1016.65 1016.71 1016.72
1013.52 1013.69 1013.86 1014.00 1014.08 1014.09 1014.03 1013.91 1013.78 1013.67 1013.60 1013.58 1013.62 1013.69 1013.75 1013.79 1013.79 1013.73 1013.65 1013.56 1013.49 1013.48 1013.53 1013.65 1013.81 1013.99 1014.14 1014.26 1014.33 1014.37 1014.39 1014.44 1014.55 1014.72 1014.97 1015.29 1015.62 1015.95 1016.23 1016.44 1016.57 1016.63 1016.64
1013.58 1013.76 1013.93 1014.08 1014.17 1014.19 1014.15 1014.05 1013.94 1013.84 1013.77 1013.74 1013.76 1013.80 1013.85 1013.88 1013.87 1013.83 1013.76 1013.70 1013.66 1013.67 1013.74 1013.87 1014.04 1014.22 1014.39 1014.52 1014.61 1014.66 1014.69 1014.72 1014.80 1014.93 1015.13 1015.37 1015.65 1015.92 1016.16 1016.34 1016.46 1016.52 1016.53
1013.64 1013.79 1013.94 1014.07 1014.16 1014.19 1014.18 1014.12 1014.04 1013.96 1013.91 1013.88 1013.89 1013.91 1013.95 1013.97 1013.97 1013.96 1013.93 1013.90 1013.90 1013.95 1014.04 1014.19 1014.37 1014.57 1014.75 1014.91 1015.02 1015.10 1015.14 1015.18 1015.23 1015.31 1015.43 1015.59 1015.78 1015.97 1016.14 1016.28 1016.37 1016.41 1016.41
1013.69 1013.78 1013.88 1013.98 1014.05 1014.11 1014.13 1014.12 1014.09 1014.06 1014.03 1014.02 1014.02 1014.04 1014.06 1014.08 1014.10 1014.11 1014.13 1014.15 1014.19 1014.27 1014.40 1014.56 1014.76 1014.97 1015.18 1015.36 1015.51 1015.62 1015.69 1015.74 1015.77 1015.81 1015.86 1015.93 1016.02 1016.11 1016.20 1016.27 1016.32 1016.34 1016.33
1013.69 1013.72 1013.77 1013.83 1013.90 1013.98 1014.04 1014.10 1014.14 1014.16 1014.17 1014.17 1014.17 1014.18 1014.20 1014.22 1014.25 1014.29 1014.34 1014.41 1014.50 1014.61 1014.76 1014.93 1015.14 1015.36 1015.59 1015.80 1015.99 1016.14 1016.25 1016.32 1016.35 1016.36 1016.35 1016.34 1016.33 1016.33 1016.33 1016.34 1016.34 1016.33 1016.31
1013.67 1013.65 1013.64 1013.68 1013.75 1013.86 1013.98 1014.11 1014.22 1014.30 1014.35 1014.37 1014.37 1014.36 1014.36 1014.37 1014.41 1014.47 1014.55 1014.65 1014.78 1014.92 1015.08 1015.25 1015.45 1015.68 1015.91 1016.14 1016.37 1016.56 1016.72 1016.82 1016.87 1016.86 1016.82 1016.75 1016.66 1016.58 1016.51 1016.46 1016.43 1016.40 1016.37
1013.63 1013.57 1013.54 1013.56 1013.64 1013.79 1013.97 1014.17 1014.36 1014.50 1014.58 1014.61 1014.59 1014.56 1014.53 1014.52 1014.55 1014.62 1014.73 1014.86 1015.01 1015.16 1015.32 1015.49 1015.67 1015.87 1016.09 1016.33 1016.58 1016.81 1017.01 1017.16 1017.24 1017.25 1017.20 1017.10 1016.97 1016.83 1016.71 1016.62 1016.55 1016.52 1016.49
1013.56 1013.51 1013.47 1013.49 1013.59 1013.78 1014.02 1014.29 1014.53 1014.72 1014.83 1014.86 1014.83 1014.76 1014.70 1014.66 1014.68 1014.75 1014.87 1015.02 1015.17 1015.33 1015.48 1015.62 1015.77 1015.93 1016.13 1016.36 1016.61 1016.87 1017.11 1017.30 1017.43 1017.47 1017.43 1017.33 1017.18 1017.02 1016.88 1016.76 1016.69 1016.66 1016.65
1013.47 1013.44 1013.42 1013.45 1013.58 1013.80 1014.09 1014.41 1014.70 1014.93 1015.06 1015.08 1015.03 1014.93 1014.84 1014.77 1014.77 1014.84 1014.97 1015.12 1015.29 1015.44 1015.57 1015.68 1015.78 1015.90 1016.05 1016.25 1016.49 1016.76 1017.03 1017.26 1017.43 1017.52 1017.51 1017.43 1017.29 1017.13 1016.98 1016.87 1016.80 1016.79 1016.81
1013.33 1013.34 1013.34 1013.39 1013.54 1013.79 1014.11 1014.47 1014.81 1015.06 1015.20 1015.23 1015.16 1015.04 1014.92 1014.84 1014.83 1014.89 1015.03 1015.20 1015.37 1015.52 1015.64 1015.71 1015.77 1015.83 1015.92 1016.08 1016.29 1016.55 1016.83 1017.09 1017.30 1017.42 1017.45 1017.40 1017.29 1017.14 1017.01 1016.91 1016.86 1016.88 1016.93
1013.13 1013.17 1013.19 1013.25 1013.41 1013.68 1014.03 1014.42 1014.78 1015.06 1015.22 1015.26 1015.19 1015.06 1014.93 1014.85 1014.84 1014.92 1015.07 1015.26 1015.44 1015.60 1015.69 1015.74 1015.75 1015.76 1015.80 1015.91 1016.08 1016.31 1016.58 1016.85 1017.08 1017.23 1017.30 1017.28 1017.19 1017.07 1016.96 1016.88 1016.86 1016.90 1016.99
Thickness
5770 5775 5777 5779 5781 5781 5781 5780 5780 5780 5780 5779 5779 5779 5778 5778 5777 5776 5776 5774 5773 5772 5771 5771 5770 5769 5768 5767 5766 5765 5763 5761 5760 5759 5759 5758 5756 5755 5754 5753 5751 5750 5749
5772 5774 5776 5778 5779 5779 5779 5779 5778 5778 5778 5778 5777 5777 5777 5777 5776 5775 5774 5773 5772 5771 5770 5769 5769 5768 5767 5766 5765 5764 5762 5761 5760 5759 5758 5756 5755 5754 5753 5752 5750 5748 5747
5772 5774 5775 5776 5777 5777 5777 5777 5777 5777 5777 5776 5776 5776 5776 5776 5775 5774 5773 5772 5771 5770 5769 5768 5768 5767 5766 5765 5764 5762 5761 5760 5759 5758 5756 5755 5754 5753 5752 5751 5749 5747 5745
5772 5773 5774 5775 5775 5775 5775 5775 5775 5775 5775 5775 5775 5774 5774 5774 5773 5773 5772 5771 5770 5769 5768 5767 5766 5765 5765 5764 5762 5761 5761 5760 5758 5757 5755 5754 5753 5752 5751 5750 5748 5746 5744
5772 5772 5773 5773 5773 5773 5774 5774 5774 5773 5773 5773 5773 5772 5772 5772 5771 5771 5770 5769 5768 5768 5767 5766 5765 5764 5763 5762 5761 5761 5760 5759 5758 5756 5755 5753 5752 5751 5750 5749 5747 5745 5743
5770 5771 5771 5771 5772 5772 5772 5773 5772 5772 5772 5772 5771 5770 5770 5770 5769 5769 5768 5768 5767 5766 5766 5765 5764 5763 5762 5761 5761 5760 5759 5758 5757 5755 5754 5753 5751 5750 5749 5748 5746 5744 5742
5769 5770 5770 5771 5771 5771 5771 5771 5771 5771 5770 5770 5770 5769 5769 5768 5768 5767 5767 5766 5766 5765 5765 5764 5763 5762 5761 5761 5760 5759 5758 5757 5756 5754 5753 5752 5750 5749 5748 5747 5745 5743 5741
5769 5769 5769 5770 5770 5771 5771 5770 5770 5770 5769 5768 5768 5767 5767 5766 5766 5765 5765 5765 5765 5764 5764 5763 5762 5762 5761 5760 5759 5759 5758 5757 5755 5753 5752 5751 5750 5749 5748 5746 5744 5742 5740
5768 5768 5768 5769 5769 5769 5770 5769 5769 5769 5768 5767 5767 5766 5765 5765 5764 5764 5764 5764 5763 5763 5762 5761 5761 5762 5762 5760 5758 5758 5757 5756 5754 5752 5751 5750 5749 5748 5747 5745 5743 5741 5738
5767 5766 5766 5767 5768 5769 5769 5769 5769 5769 5768 5766 5766 5765 5765 5764 5764 5763 5762 5762 5762 5761 5761 5760 5760 5760 5760 5759 5757 5757 5756 5754 5753 5751 5750 5749 5748 5747 5746 5744 5742 5740 5737
5765 5765 5766 5766 5767 5767 5768 5768 5768 5768 5767 5766 5765 5764 5763 5762 5762 5762 5761 5761 5760 5760 5760 5759 5758 5758 5757 5757 5756 5754 5754 5752 5751 5750 5749 5748 5747 5746 5745 5743 5741 5739 5737
5762 5764 5765 5766 5767 5767 5767 5767 5767 5766 5765 5764 5763 5763 5762 5761 5761 5760 5760 5759 5759 5759 5759 5758 5757 5756 5755 5754 5754 5753 5752 5751 5750 5749 5749 5748 5747 5745 5744 5743 5741 5738 5736
5764 5765 5766 5767 5767 5767 5766 5765 5765 5765 5764 5763 5763 5762 5762 5761 5759 5759 5758 5758 5758 5758 5757 5757 5756 5755 5754 5753 5752 5752 5751 5751 5750 5749 5748 5748 5746 5745 5743 5742 5740 5738 5735
5765 5766 5767 5767 5767 5767 5766 5765 5764 5764 5763 5762 5762 5762 5761 5760 5759 5758 5757 5757 5757 5757 5756 5756 5755 5754 5753 5753 5752 5752 5751 5750 5750 5749 5748 5747 5746 5744 5743 5741 5739 5737 5735
5766 5767 5768 5768 5768 5767 5766 5765 5765 5763 5763 5762 5762 5761 5761 5760 5758 5758 5757 5757 5757 5757 5756 5755 5754 5753 5752 5751 5751 5751 5750 5750 5749 5749 5748 5747 5745 5744 5742 5740 5738 5737 5734
5769 5769 5770 5770 5769 5768 5767 5766 5765 5764 5763 5763 5762 5761 5761 5760 5759 5758 5757 5757 5756 5756 5755 5754 5753 5752 5751 5750 5750 5749 5749 5748 5748 5747 5746 5745 5743 5742 5741 5739 5737 5736 5734
5772 5772 5772 5771 5770 5769 5767 5766 5766 5765 5764 5763 5762 5762 5761 5760 5759 5758 5757 5757 5756 5756 5755 5754 5752 5751 5750 5749 5748 5748 5747 5746 5745 5745 5744 5742 5741 5740 5739 5738 5737 5735 5733
5776 5774 5773 5774 5771 5769 5768 5767 5766 5765 5764 5763 5762 5761 5761 5760 5759 5759 5758 5757 5756 5755 5754 5753 5751 5750 5748 5747 5746 5745 5745 5744 5744 5742 5741 5740 5739 5738 5738 5737 5735 5733 5732
5778 5776 5773 5773 5771 5769 5768 5767 5766 5765 5764 5763 5762 5762 5761 5760 5760 5759 5758 5757 5756 5755 5754 5753 5751 5749 5746 5745 5744 5743 5742 5742 5741 5740 5739 5738 5737 5735 5735 5734 5733 5732 5731
5779 5777 5775 5773 5771 5770 5768 5767 5765 5764 5764 5763 5762 5762 5761 5761 5760 5759 5758 5757 5756 5755 5753 5752 5750 5748 5746 5744 5743 5741 5739 5739 5738 5737 5737 5735 5734 5733 5732 5731 5730 5730 5729
5779 5776 5775 5773 5771 5770 5767 5765 5762 5761 5762 5762 5762 5762 5762 5761 5761 5760 5759 5757 5756 5754 5753 5752 5750 5747 5744 5743 5740 5736 5735 5736 5735 5734 5733 5732 5731 5730 5729 5728 5727 5726 5725
5779 5777 5776 5774 5773 5771 5770 5767 5765 5764 5763 5762 5763 5762 5762 5761 5761 5760 5759 5758 5756 5754 5752 5751 5749 5746 5744 5742 5739 5733 5729 5729 5731 5732 5730 5729 5728 5727 5726 5725 5723 5722 5721
5781 5780 5779 5776 5774 5773 5772 5769 5767 5765 5763 5762 5761 5761 5762 5761 5761 5760 5759 5758 5757 5755 5752 5750 5749 5746 5742 5741 5740 5736 5729 5725 5725 5726 5726 5726 5725 5723 5722 5721 5720 5719 5718
5785 5784 5781 5779 5777 5775 5773 5770 5766 5763 5760 5760 5761 5761 5761 5761 5761 5760 5759 5758 5757 5755 5753 5751 5749 5747 5744 5739 5738 5737 5735 5732 5725 5721 5721 5722 5721 5720 5718 5718 5716 5715 5714
5789 5786 5783 5780 5778 5777 5775 5772 5768 5765 5763 5762 5762 5761 5760 5761 5761 5760 5759 5758 5756 5755 5753 5751 5749 5747 5744 5741 5738 5736 5733 5730 5728 5722 5718 5717 5716 5716 5715 5713 5712 5711 5710
5790 5787 5784 5781 5779 5778 5776 5773 5770 5767 5764 5762 5760 5759 5759 5759 5760 5760 5759 5758 5756 5755 5753 5751 5749 5747 5744 5741 5739 5736 5733 5730 5726 5723 5718 5714 5713 5712 5711 5710 5709 5707 5706